Погода в Стародеревянковской

Россия / Краснодарский край     46°07′37″N   38°58′28″E
темп.,
°C
ветер,
м/с
пор.,
м/с
влажн.,
%
обл.,
%
осадки,
мм/ч
давл.,
гПа
погр.,
м
11 апреля, вс
вс1100:00+8ссв3765100 0.0 1022197
03:00+7ссв31083100 0.4 1021394
06:00+7ссв41190100 0.4 1021544
09:00+9св797956 0.4 1021730
12:00+11св6874100 0.0 1020966
15:00+10св5678100 0.0 1020855
18:00+10св5884100 0.0 1019528
21:00+9св4887100 0.0 1020324
12 апреля, пн
пн1200:00+8ссв2590100 0.0 1019187
03:00+8сз1191100 0.0 101920
06:00+8з2392100 0.0 102087
09:00+10зюз4587100 0.1 1020402
12:00+11зюз458299 0.1 1021630
15:00+10зюз4588100 0.1 1022393
18:00+9зсз2290100 0.0 102299
21:00+9юз1188100 0.0 102313
13 апреля, вт
вт1300:00+8ю0090100 0.0 102310
03:00+8зюз2292100 0.0 102355
06:00+8зюз2290100 0.0 102355
09:00+8юз2388100 0.1 1023143
12:00+9з1183100 0.0 1023209
15:00+13зсз007097 0.0 1022670
18:00+12зюз1178100 0.0 102260
21:00+10юв0083100 0.0 102210
14 апреля, ср
ср1400:00+9с228726 0.0 102033
03:00+8ссв2293100 0.0 101933
06:00+8ссз2288100 0.1 101853
09:00+10сз2394100 4.1 1018225
12:00+14зюз2281100 0.1 1018689
15:00+13зюз348164 0.5 1018524
18:00+13зюз348025 0.0 1017289
21:00+9зюз338661 0.0 101737
15 апреля, чт
чт1500:00+8з228732 0.0 101625
03:00+7с118958 0.0 101610
06:00+7ююв018965 0.0 101610
09:00+12в22741 0.0 1016343
12:00+17юв33605 0.0 10151043
15:00+18ююз3554100 0.0 10141711
18:00+11з3592100 1.9 1015185
21:00+10зюз119066 2.3 101510